This is the latest recevied weather packets stored in our database for station/object vk4zu-13. If no packets are shown the sender has not sent any weather packets the latest 10 day(s).
| Time | Temp. | Humidity | Pressure | Rain* | Wind** | Luminosity | Snow |
|---|---|---|---|---|---|---|---|
| 1778136539 | 24.44° C | 39% | 1013.8 hPa | 0 mm | - | 14 W/m² | - |
| 1778136479 | 24.44° C | 40% | 1013.8 hPa | 0 mm | - | 16 W/m² | - |
| 1778136413 | 24.44° C | 40% | 1013.8 hPa | 0 mm | - | 19 W/m² | - |
| 1778136339 | 24.44° C | 39% | 1013.7 hPa | 0 mm | - | 21 W/m² | - |
| 1778136278 | 24.44° C | 39% | 1013.6 hPa | 0 mm | - | 21 W/m² | - |
| 1778136214 | 24.44° C | 40% | 1013.6 hPa | 0 mm | - | 21 W/m² | - |
| 1778136154 | 24.44° C | 39% | 1013.7 hPa | 0 mm | - | 23 W/m² | - |
| 1778136090 | 24.44° C | 42% | 1013.6 hPa | 0 mm | - | 25 W/m² | - |
| 1778136025 | 24.44° C | 41% | 1013.6 hPa | 0 mm | - | 28 W/m² | - |
| 1778135966 | 24.44° C | 41% | 1013.6 hPa | 0 mm | - | 30 W/m² | - |
| 1778135901 | 24.44° C | 41% | 1013.6 hPa | 0 mm | - | 32 W/m² | - |
| 1778135828 | 24.44° C | 42% | 1013.6 hPa | 0 mm | - | 32 W/m² | - |
| 1778135768 | 24.44° C | 42% | 1013.6 hPa | 0 mm | - | 35 W/m² | - |
| 1778135714 | 24.44° C | 41% | 1013.6 hPa | 0 mm | - | 39 W/m² | - |
| 1778135646 | 24.44° C | 43% | 1013.6 hPa | 0 mm | - | 39 W/m² | - |
| 1778135586 | 24.44° C | 40% | 1013.6 hPa | 0 mm | - | 42 W/m² | - |
| 1778135517 | 24.44° C | 41% | 1013.5 hPa | 0 mm | - | 44 W/m² | - |
| 1778135458 | 24.44° C | 41% | 1013.6 hPa | 0 mm | - | 47 W/m² | - |
| 1778135405 | 24.44° C | 43% | 1013.5 hPa | 0 mm | - | 49 W/m² | - |
| 1778135329 | 24.44° C | 42% | 1013.5 hPa | 0 mm | - | 54 W/m² | - |
| 1778135259 | 24.44° C | 43% | 1013.5 hPa | 0 mm | - | 56 W/m² | - |
| 1778135189 | 24.44° C | 41% | 1013.4 hPa | 0 mm | - | 60 W/m² | - |
| 1778135122 | 24.44° C | 42% | 1013.4 hPa | 0 mm | - | 62 W/m² | - |
| 1778135049 | 24.44° C | 40% | 1013.5 hPa | 0 mm | - | 63 W/m² | - |
| 1778134979 | 24.44° C | 44% | 1013.4 hPa | 0 mm | - | 67 W/m² | - |
* Rain latest hour (hover to see other rain measurements)
** Current wind speed in m/s (hover to see current wind gust speed)